FW5863 Weather Reports


Display with metric or nautical units.
time (UTC)temp
F
wind
direction
speed
MPH
gust
MPH
rain 1hr
in
rain 24hr
in
rain mn
in
humidity
%
barometer
mb
20200406094500 44 79 2.0 5.0 0.00 0.00 0.00 70 1017.5
20200406093959 44 45 0.0 5.0 0.00 0.00 0.00 71 1017.5
20200406093459 44 84 0.0 0.0 0.00 0.00 0.00 71 1017.6
20200406093000 44 63 0.0 0.0 0.00 0.00 0.00 71 1017.6
20200406092459 45 68 0.0 0.0 0.00 0.00 0.00 71 1017.5
20200406091959 45 55 0.0 0.0 0.00 0.00 0.00 71 1017.5
20200406091501 45 55 0.0 0.0 0.00 0.00 0.00 71 1017.4
20200406090959 45 55 0.0 0.0 0.00 0.00 0.00 72 1017.4
20200406090459 45 55 1.0 4.0 0.00 0.00 0.00 72 1017.3
20200406090000 46 55 2.0 5.0 0.00 0.00 0.00 72 1017.2
20200406085459 46 65 0.0 5.0 0.00 0.00 0.00 72 1017.1
20200406084959 46 59 0.0 0.0 0.00 0.00 0.00 72 1017.1
20200406084500 46 45 0.0 0.0 0.00 0.00 0.00 72 1017.1
20200406083959 47 55 1.0 5.0 0.00 0.00 0.00 72 1017.0
20200406083459 47 55 2.0 9.0 0.00 0.00 0.00 72 1016.9
20200406083006 47 50 3.0 9.0 0.00 0.00 0.00 72 1016.8
20200406082459 47 55 2.0 8.0 0.00 0.00 0.00 72 1016.8
20200406081959 47 50 2.0 5.0 0.00 0.00 0.00 72 1016.7
20200406081459 48 45 3.0 6.0 0.00 0.00 0.00 72 1016.6
20200406080959 48 68 3.0 6.0 0.00 0.00 0.00 72 1016.5
20200406080458 48 23 3.0 5.0 0.00 0.00 0.00 72 1016.6
20200406080001 48 33 1.0 5.0 0.00 0.00 0.00 72 1016.6
20200406075459 49 40 1.0 4.0 0.00 0.00 0.00 72 1016.5
20200406074959 49 9 1.0 6.0 0.00 0.00 0.00 72 1016.4
20200406074500 49 144 2.0 8.0 0.00 0.00 0.00 71 1016.4
20200406073958 49 93 3.0 10.0 0.00 0.00 0.00 71 1016.3
20200406073459 49 55 2.0 10.0 0.00 0.00 0.00 71 1016.3
20200406072959 50 67 2.0 8.0 0.00 0.00 0.00 70 1016.3
20200406072459 50 45 3.0 8.0 0.00 0.00 0.00 70 1016.3
20200406071959 50 50 4.0 6.0 0.00 0.00 0.00 70 1016.4
20200406071500 50 65 4.0 6.0 0.00 0.00 0.00 70 1016.3
20200406070959 50 74 3.0 6.0 0.00 0.00 0.00 70 1016.3
20200406070459 50 55 2.0 5.0 0.00 0.00 0.00 71 1016.4
20200406070000 50 70 1.0 5.0 0.00 0.00 0.00 71 1016.3
20200406065459 50 55 2.0 6.0 0.00 0.00 0.00 71 1016.3
20200406064959 51 74 4.0 6.0 0.00 0.00 0.00 70 1016.3
20200406064459 51 36 4.0 6.0 0.00 0.00 0.00 71 1016.4
20200406063959 51 45 3.0 6.0 0.00 0.00 0.00 71 1016.3
20200406063459 51 50 2.0 6.0 0.00 0.00 0.00 71 1016.3
20200406063000 51 45 1.0 5.0 0.00 0.00 0.00 71 1016.3
20200406062459 52 62 2.0 5.0 0.00 0.00 0.00 68 1016.2
20200406061958 52 45 2.0 5.0 0.00 0.00 0.00 64 1016.3
20200406061459 52 45 1.0 5.0 0.00 0.00 0.00 57 1016.2
20200406060959 52 55 0.0 3.0 0.00 0.00 0.00 56 1016.3
20200406060458 53 55 0.0 0.0 0.00 0.00 0.00 55 1016.2
20200406060001 53 55 0.0 0.0 0.00 0.00 0.00 55 1016.3
20200406055458 53 55 0.0 0.0 0.00 0.00 0.00 56 1016.3
20200406054958 53 55 0.0 4.0 0.00 0.00 0.00 57 1016.3
20200406054501 53 55 1.0 4.0 0.00 0.00 0.00 58 1016.2
20200406053958 53 55 1.0 4.0 0.00 0.00 0.00 58 1016.3
20200406053459 54 71 1.0 6.0 0.00 0.00 0.00 59 1016.2
20200406052959 54 64 1.0 4.0 0.00 0.00 0.00 59 1016.3
20200406052459 54 59 2.0 5.0 0.00 0.00 0.00 59 1016.3
20200406051958 54 61 1.0 5.0 0.00 0.00 0.00 60 1016.4
20200406051459 54 70 1.0 4.0 0.00 0.00 0.00 61 1016.4
20200406050959 54 116 1.0 4.0 0.00 0.00 0.00 61 1016.3
20200406050459 55 70 1.0 5.0 0.00 0.00 0.00 62 1016.3
20200406050007 55 74 0.0 3.0 0.00 0.00 0.00 63 1016.1
20200406045459 55 79 0.0 3.0 0.00 0.00 0.00 64 1016.0
20200406044959 55 80 0.0 3.0 0.00 0.00 0.00 65 1016.0
20200406044500 55 103 0.0 3.0 0.00 0.00 0.00 66 1015.9
20200406043958 55 103 1.0 3.0 0.00 0.00 0.00 67 1016.0
20200406043458 56 104 0.0 5.0 0.00 0.00 0.00 68 1016.0
20200406043000 56 81 0.0 6.0 0.00 0.00 0.00 68 1016.0
20200406042459 56 75 1.0 6.0 0.00 0.00 0.00 69 1015.9
20200406041959 56 85 2.0 6.0 0.00 0.00 0.00 69 1015.8
20200406041459 56 119 2.0 6.0 0.00 0.00 0.00 70 1015.9
20200406040959 55 60 1.0 6.0 0.00 0.00 0.00 69 1015.8
20200406040459 55 290 0.0 0.0 0.00 0.00 0.00 68 1015.8
20200406040001 55 290 0.0 0.0 0.00 0.00 0.00 67 1015.9
20200406035459 55 290 0.0 0.0 0.00 0.00 0.00 69 1016.0
20200406034959 55 290 0.0 0.0 0.00 0.00 0.00 70 1015.9
20200406034459 55 290 0.0 0.0 0.00 0.00 0.00 70 1015.7
20200406033958 56 290 1.0 3.0 0.00 0.00 0.00 71 1015.7
20200406033458 56 290 1.0 3.0 0.00 0.00 0.00 71 1015.5
20200406033000 56 290 0.0 3.0 0.00 0.00 0.00 71 1015.5
20200406032458 56 290 0.0 3.0 0.00 0.00 0.00 71 1015.5
20200406031958 56 290 0.0 0.0 0.00 0.00 0.00 71 1015.5
20200406031500 56 290 0.0 0.0 0.00 0.00 0.00 71 1015.5
20200406030958 56 290 0.0 0.0 0.00 0.00 0.00 71 1015.5
20200406030458 56 290 0.0 0.0 0.00 0.00 0.00 71 1015.5
20200406030000 56 290 0.0 0.0 0.00 0.00 0.00 71 1015.4
20200406025459 57 290 0.0 0.0 0.00 0.00 0.00 71 1015.4
20200406024959 57 290 0.0 0.0 0.00 0.00 0.00 71 1015.4
20200406024500 57 290 0.0 0.0 0.00 0.00 0.00 71 1015.5
20200406023958 56 290 0.0 0.0 0.00 0.00 0.00 71 1015.5
20200406023459 56 290 0.0 0.0 0.00 0.00 0.00 71 1015.4
20200406023000 56 290 0.0 0.0 0.00 0.00 0.00 71 1015.5
20200406022459 56 290 0.0 0.0 0.00 0.00 0.00 71 1015.5
20200406021958 56 290 0.0 0.0 0.00 0.00 0.00 71 1015.6
20200406021503 56 290 0.0 0.0 0.00 0.00 0.00 71 1015.5
20200406020959 56 290 0.0 0.0 0.00 0.00 0.00 71 1015.5
20200406020459 57 290 0.0 0.0 0.00 0.00 0.00 71 1015.5
20200406020000 57 290 0.0 0.0 0.00 0.00 0.00 71 1015.5
20200406015459 57 290 0.0 0.0 0.00 0.00 0.00 71 1015.5
20200406014959 57 290 0.0 0.0 0.00 0.00 0.00 71 1015.6
20200406014500 57 290 0.0 0.0 0.00 0.00 0.00 70 1015.6
20200406013958 57 290 0.0 0.0 0.00 0.00 0.00 70 1015.6
20200406013459 57 290 1.0 4.0 0.00 0.00 0.00 70 1015.6
20200406013000 57 290 3.0 4.0 0.00 0.00 0.00 70 1015.7
20200406012458 57 290 3.0 4.0 0.00 0.00 0.00 70 1015.6
20200406011958 57 290 2.0 4.0 0.00 0.00 0.00 70 1015.6
20200406011459 57 290 0.0 3.0 0.00 0.00 0.00 69 1015.6
20200406010959 57 290 1.0 4.0 0.00 0.00 0.00 69 1015.5
20200406010459 57 290 3.0 4.0 0.00 0.00 0.00 69 1015.5
20200406010000 58 290 1.0 4.0 0.00 0.00 0.00 69 1015.5
20200406005459 58 290 0.0 4.0 0.00 0.00 0.00 69 1015.5
20200406004959 58 290 0.0 4.0 0.00 0.00 0.00 68 1015.4
20200406004500 58 290 1.0 4.0 0.00 0.00 0.00 68 1015.4
20200406003958 58 290 2.0 4.0 0.00 0.00 0.00 68 1015.4
20200406003458 58 290 2.0 4.0 0.00 0.00 0.00 67 1015.4
20200406003000 58 290 1.0 4.0 0.00 0.00 0.00 67 1015.3
20200406002459 59 289 0.0 4.0 0.00 0.00 0.00 67 1015.3
20200406001959 59 290 0.0 3.0 0.00 0.00 0.00 66 1015.2
20200406001500 59 290 0.0 0.0 0.00 0.00 0.00 66 1015.2
20200406000959 59 290 1.0 3.0 0.00 0.00 0.00 66 1015.2
20200406000459 59 290 2.0 4.0 0.00 0.00 0.00 65 1015.2
20200406000006 60 290 1.0 4.0 0.00 0.00 0.00 65 1015.2
20200405235459 60 290 0.0 1.0 0.00 0.00 0.00 65 1015.2
20200405234958 60 290 0.0 0.0 0.00 0.00 0.00 65 1015.2
20200405234500 60 290 0.0 3.0 0.00 0.00 0.00 64 1015.1
20200405233959 60 290 0.0 3.0 0.00 0.00 0.00 64 1015.1
20200405233459 61 290 0.0 2.0 0.00 0.00 0.00 63 1015.0
20200405232959 61 290 1.0 5.0 0.00 0.00 0.00 63 1015.0
20200405232459 61 290 1.0 5.0 0.00 0.00 0.00 62 1015.0
20200405231959 61 286 1.0 5.0 0.00 0.00 0.00 62 1015.0
20200405231500 62 292 2.0 7.0 0.00 0.00 0.00 61 1014.9
20200405230959 62 291 2.0 7.0 0.00 0.00 0.00 61 1015.0
20200405230459 62 294 3.0 7.0 0.00 0.00 0.00 61 1015.0
20200405230000 62 292 4.0 7.0 0.00 0.00 0.00 60 1015.1
20200405225459 62 288 3.0 7.0 0.00 0.00 0.00 60 1015.1
20200405224958 63 291 4.0 8.0 0.00 0.00 0.00 60 1015.1
20200405224500 63 295 5.0 8.0 0.00 0.00 0.00 59 1015.2
20200405223959 63 286 6.0 11.0 0.00 0.00 0.00 60 1015.2
20200405223459 63 292 5.0 11.0 0.00 0.00 0.00 59 1015.2
20200405222959 63 303 4.0 11.0 0.00 0.00 0.00 59 1015.2
20200405222459 63 289 3.0 11.0 0.00 0.00 0.00 59 1015.1
20200405221959 63 264 3.0 11.0 0.00 0.00 0.00 59 1015.1
20200405221500 63 291 4.0 10.0 0.00 0.00 0.00 60 1015.2
20200405220959 63 292 5.0 10.0 0.00 0.00 0.00 59 1015.2
20200405220459 63 287 5.0 10.0 0.00 0.00 0.00 59 1015.2
20200405215959 63 292 5.0 10.0 0.00 0.00 0.00 58 1015.2
20200405215459 64 288 4.0 10.0 0.00 0.00 0.00 58 1015.2
20200405214959 64 279 6.0 12.0 0.00 0.00 0.00 58 1015.2
20200405214500 64 296 7.0 13.0 0.00 0.00 0.00 58 1015.2
20200405213959 64 289 5.0 13.0 0.00 0.00 0.00 57 1015.1
20200405213459 64 280 4.0 10.0 0.00 0.00 0.00 58 1015.2
20200405213001 64 285 4.0 10.0 0.00 0.00 0.00 57 1015.3
20200405212459 65 292 3.0 10.0 0.00 0.00 0.00 57 1015.2
20200405211958 65 299 4.0 10.0 0.00 0.00 0.00 57 1015.3
20200405211500 65 324 5.0 12.0 0.00 0.00 0.00 57 1015.3
20200405210959 65 282 3.0 12.0 0.00 0.00 0.00 57 1015.3
20200405210458 65 286 2.0 10.0 0.00 0.00 0.00 57 1015.3
20200405210003 65 285 3.0 9.0 0.00 0.00 0.00 58 1015.3
20200405205458 65 273 3.0 9.0 0.00 0.00 0.00 57 1015.3
20200405204958 65 287 3.0 9.0 0.00 0.00 0.00 56 1015.4
20200405204500 65 321 3.0 9.0 0.00 0.00 0.00 57 1015.4
20200405203959 65 290 2.0 9.0 0.00 0.00 0.00 58 1015.4
20200405203459 65 289 2.0 10.0 0.00 0.00 0.00 59 1015.5
20200405203000 64 342 3.0 10.0 0.00 0.00 0.00 59 1015.5
20200405202459 64 289 4.0 14.0 0.00 0.00 0.00 59 1015.4
20200405201959 63 290 6.0 14.0 0.00 0.00 0.00 61 1015.5
20200405201500 63 315 7.0 14.0 0.00 0.00 0.00 61 1015.5
20200405200958 63 276 7.0 15.0 0.00 0.00 0.00 60 1015.5
20200405200458 63 280 6.0 15.0 0.00 0.00 0.00 61 1015.5
20200405200002 63 297 6.0 13.0 0.00 0.00 0.00 61 1015.7
20200405195459 63 288 8.0 14.0 0.00 0.00 0.00 61 1015.7
20200405194958 63 287 9.0 14.0 0.00 0.00 0.00 60 1015.7
20200405194500 64 288 6.0 14.0 0.00 0.00 0.00 59 1015.8
20200405193958 64 283 5.0 13.0 0.00 0.00 0.00 59 1015.8
20200405193458 65 289 4.0 13.0 0.00 0.00 0.00 59 1015.9
20200405193000 65 255 3.0 13.0 0.00 0.00 0.00 58 1015.8
20200405192459 65 288 2.0 9.0 0.00 0.00 0.00 56 1015.9
20200405191958 64 312 4.0 10.0 0.00 0.00 0.00 59 1016.0
20200405191500 64 309 5.0 10.0 0.00 0.00 0.00 56 1015.9
20200405190959 64 303 4.0 11.0 0.00 0.00 0.00 58 1016.1
20200405190459 64 334 2.0 9.0 0.00 0.00 0.00 57 1016.2
20200405190000 63 50 2.0 5.0 0.00 0.00 0.00 57 1016.2
20200405185458 63 11 2.0 5.0 0.00 0.00 0.00 58 1016.2
20200405184959 63 63 1.0 4.0 0.00 0.00 0.00 58 1016.2
20200405184503 62 309 2.0 5.0 0.00 0.00 0.00 60 1016.3
20200405183959 62 300 3.0 5.0 0.00 0.00 0.00 59 1016.3
20200405183459 62 50 3.0 9.0 0.00 0.00 0.00 58 1016.3
20200405183001 62 21 3.0 9.0 0.00 0.00 0.00 57 1016.4
20200405182459 63 329 2.0 7.0 0.00 0.00 0.00 58 1016.5
20200405181959 62 292 2.0 6.0 0.00 0.00 0.00 59 1016.6
20200405181500 62 7 2.0 5.0 0.00 0.00 0.00 60 1016.6
20200405180959 62 5 1.0 5.0 0.00 0.00 0.00 58 1016.6
20200405180459 62 313 1.0 6.0 0.00 0.00 0.00 59 1016.7
20200405180000 62 324 2.0 6.0 0.00 0.00 0.00 59 1016.6
20200405175459 62 336 1.0 5.0 0.00 0.00 0.00 59 1016.7
20200405174959 62 359 2.0 4.0 0.00 0.00 0.00 59 1016.7
20200405174500 62 327 3.0 7.0 0.00 0.00 0.00 59 1016.8
20200405173959 62 354 3.0 8.0 0.00 0.00 0.00 60 1016.9
20200405173458 62 307 3.0 8.0 0.00 0.00 0.00 61 1016.9
20200405173000 61 346 3.0 8.0 0.00 0.00 0.00 59 1016.9
20200405172459 61 355 2.0 8.0 0.00 0.00 0.00 58 1016.9
20200405171959 61 348 1.0 8.0 0.00 0.00 0.00 60 1017.0
20200405171500 61 350 1.0 5.0 0.00 0.00 0.00 61 1017.1
20200405170958 61 45 1.0 5.0 0.00 0.00 0.00 59 1017.1
20200405170458 61 19 2.0 5.0 0.00 0.00 0.00 59 1017.3
20200405170000 61 55 3.0 6.0 0.00 1.69 0.00 59 1017.1
20200405165459 62 357 3.0 6.0 0.00 1.69 0.00 59 1017.3
20200405164959 62 13 3.0 9.0 0.00 1.69 0.00 59 1017.3
20200405164503 62 1 3.0 9.0 0.00 1.69 0.00 60 1017.2
20200405163959 61 7 3.0 9.0 0.00 1.69 0.00 61 1017.2
20200405163459 60 317 3.0 6.0 0.00 1.69 0.00 61 1017.4
20200405163000 60 348 3.0 6.0 0.00 1.69 0.00 62 1017.4
20200405162459 60 28 3.0 6.0 0.00 1.69 0.00 62 1017.5
20200405161958 59 352 2.0 6.0 0.00 1.69 0.00 62 1017.5
20200405161500 59 315 2.0 6.0 0.00 1.69 0.00 62 1017.5
20200405160958 59 352 2.0 7.0 0.00 1.69 0.00 63 1017.6
20200405160459 59 23 3.0 5.0 0.00 1.69 0.00 61 1017.6
20200405160000 60 334 3.0 5.0 0.00 3.43 0.00 62 1017.6
20200405155459 60 355 3.0 6.0 0.00 3.43 0.00 62 1017.6
20200405154959 60 323 4.0 6.0 0.00 3.43 0.00 63 1017.6
20200405154500 60 340 4.0 10.0 0.00 3.43 0.00 63 1017.6
20200405153959 60 341 4.0 10.0 0.00 3.43 0.00 68 1017.8
20200405153459 59 271 3.0 9.0 0.00 3.43 0.00 68 1017.8
20200405153004 59 298 4.0 9.0 0.00 3.43 0.00 68 1017.8
20200405152458 59 269 4.0 9.0 0.00 3.43 0.00 67 1017.9
20200405151958 59 354 4.0 8.0 0.00 3.43 0.00 68 1017.9
20200405151500 58 331 5.0 10.0 0.00 3.43 0.00 69 1018.0
20200405150959 58 282 4.0 10.0 0.00 3.43 0.00 69 1018.0
20200405150458 58 344 5.0 11.0 0.00 3.43 0.00 70 1018.0
20200405150000 58 279 3.0 11.0 0.00 4.04 0.00 69 1018.0
20200405145458 58 311 2.0 6.0 0.00 4.04 0.00 71 1018.0
20200405144959 57 284 3.0 7.0 0.00 4.04 0.00 70 1018.1
20200405144500 57 288 3.0 7.0 0.00 4.04 0.00 71 1018.1
20200405143958 57 283 2.0 6.0 0.00 4.04 0.00 71 1018.1
20200405143459 56 298 2.0 5.0 0.00 4.04 0.00 71 1018.2
20200405143000 56 289 3.0 5.0 0.00 4.04 0.00 71 1018.1
20200405142458 56 290 3.0 6.0 0.00 4.04 0.00 70 1018.2
20200405141958 55 309 3.0 6.0 0.00 4.04 0.00 70 1018.1
20200405141502 55 304 3.0 8.0 0.00 4.04 0.00 69 1018.2
20200405140958 55 304 4.0 8.0 0.00 4.04 0.00 70 1018.2
20200405140459 55 296 4.0 7.0 0.00 4.04 0.00 70 1018.1
20200405140000 55 278 3.0 8.0 0.00 4.17 0.00 68 1018.1
20200405135459 54 289 3.0 7.0 0.00 4.17 0.00 67 1018.1
20200405134959 54 300 3.0 7.0 0.00 4.17 0.00 65 1018.2
20200405134500 53 296 3.0 7.0 0.00 4.17 0.00 65 1018.3
20200405133959 53 315 3.0 6.0 0.00 4.17 0.00 64 1018.3
20200405133458 53 295 3.0 8.0 0.00 4.17 0.00 63 1018.2
20200405133000 53 288 3.0 8.0 0.00 4.17 0.00 62 1018.2
20200405132458 52 261 3.0 8.0 0.00 4.17 0.00 63 1018.2
20200405131958 52 292 3.0 7.0 0.00 4.17 0.00 61 1018.2
20200405131504 52 297 3.0 8.0 0.00 4.17 0.00 60 1018.2
20200405130959 52 288 3.0 8.0 0.00 4.17 0.00 60 1018.1
20200405130459 51 285 2.0 5.0 0.00 4.17 0.00 59 1018.0
20200405130004 51 286 3.0 7.0 0.00 4.17 0.00 58 1018.0
20200405125512 51 286 3.0 6.0 0.00 4.17 0.00 58 1017.9
20200405124958 51 282 1.0 5.0 0.00 4.17 0.00 57 1018.0
20200405124500 51 291 1.0 5.0 0.00 4.17 0.00 56 1018.0
20200405123959 51 291 2.0 5.0 0.00 4.17 0.00 55 1018.0
20200405123459 51 293 1.0 4.0 0.00 4.17 0.00 53 1018.0
20200405123000 51 293 1.0 4.0 0.00 4.17 0.00 53 1018.1
20200405122458 50 293 1.0 4.0 0.00 4.17 0.00 51 1018.0
20200405121959 50 293 1.0 4.0 0.00 4.17 0.00 51 1018.1
20200405121500 50 294 1.0 5.0 0.00 4.17 0.00 48 1018.0
20200405120958 50 295 1.0 5.0 0.00 4.17 0.00 47 1017.9
20200405120458 50 289 1.0 3.0 0.00 4.17 0.00 44 1017.9
20200405120001 49 289 0.0 3.0 0.00 4.30 0.00 42 1017.9
20200405115458 49 289 1.0 4.0 0.00 4.30 0.00 38 1017.9
20200405114958 49 289 2.0 5.0 0.00 4.30 0.00 39 1017.9
20200405114500 49 289 2.0 5.0 0.00 4.30 0.00 38 1017.9
20200405113958 49 289 2.0 4.0 0.00 4.30 0.00 36 1017.8
20200405113458 48 289 2.0 4.0 0.00 4.30 0.00 34 1017.8
20200405113000 48 289 2.0 4.0 0.00 4.30 0.00 34 1017.7
20200405112458 48 289 2.0 5.0 0.00 4.30 0.00 33 1017.7
20200405111958 48 289 2.0 5.0 0.00 4.30 0.00 33 1017.7
20200405111500 48 289 2.0 5.0 0.00 4.30 0.00 33 1017.6
20200405110959 48 289 2.0 5.0 0.00 4.30 0.00 32 1017.6
20200405110459 48 289 3.0 7.0 0.00 4.30 0.00 32 1017.5
20200405110003 48 286 3.0 7.0 0.00 4.30 0.00 31 1017.4
20200405105459 48 290 3.0 5.0 0.00 5.40 0.00 31 1017.4
20200405104958 48 290 3.0 5.0 0.00 5.40 0.00 31 1017.4
20200405104459 48 290 2.0 4.0 0.00 5.40 0.00 31 1017.3
20200405103959 48 290 1.0 4.0 0.00 5.40 0.00 32 1017.3
20200405103458 48 290 0.0 0.0 0.00 5.40 0.00 34 1017.2
20200405102959 48 290 0.0 0.0 0.00 5.40 0.00 37 1017.1
20200405102458 48 290 0.0 0.0 0.00 5.40 0.00 37 1017.0
20200405101958 49 290 0.0 0.0 0.00 5.40 0.00 39 1016.9
20200405101500 49 290 0.0 0.0 0.00 5.40 0.00 40 1016.8
20200405100958 49 290 0.0 0.0 0.00 5.40 0.00 40 1016.9
20200405100502 49 290 0.0 0.0 0.00 5.40 0.00 41 1016.9
20200405100000 49 290 0.0 0.0 0.00 5.71 0.00 41 1016.9
20200405095459 49 290 0.0 0.0 0.00 5.71 0.00 42 1016.9
20200405094958 49 290 1.0 4.0 0.00 5.71 0.00 43 1016.8